Overview Statistics Trail Chart Weather Telemetry Raw packets
 

This is the latest recevied weather packets stored in our database for station/object 4S6DRJ-13. If no packets are shown the sender has not sent any weather packets the latest 10 day(s).

<< 161 162 163 164 165 166 167 >>
Time Temp. Humidity Pressure Rain* Wind** Luminosity Snow
1788221910 26.67° C 91% 1007.2 hPa 0 mm 0 m/s 0 W/m² -
1788221849 26.67° C 91% 1007.4 hPa 0 mm 0 m/s 0 W/m² -
1788221788 26.67° C 91% 1007.2 hPa 0 mm 0 m/s 0 W/m² -
1788221727 26.67° C 91% 1007.2 hPa 0 mm 0 m/s 0 W/m² -
1788221666 26.67° C 91% 1007.3 hPa 0 mm 0 m/s 0 W/m² -
1788221605 26.67° C 91% 1007.3 hPa 0 mm 0 m/s 0 W/m² -
1788221544 26.67° C 91% 1007.2 hPa 0 mm 0.89 m/s, 133° 0 W/m² -
1788221483 26.67° C 91% 1007.3 hPa 0 mm 0.45 m/s, 113° 0 W/m² -
1788221422 26.67° C 91% 1007.3 hPa 0 mm 0.45 m/s, 124° 0 W/m² -
1788221361 26.67° C 91% 1007.4 hPa 0 mm 0.45 m/s, 131° 0 W/m² -
1788221308 26.67° C 91% 1007.3 hPa 0 mm 0.89 m/s, 161° 0 W/m² -
1788221239 26.67° C 91% 1007.1 hPa 0 mm 0.45 m/s, 116° 0 W/m² -
1788221178 26.67° C 91% 1007.1 hPa 0 mm 0.45 m/s, 154° 0 W/m² -
1788221117 26.67° C 91% 1007.2 hPa 0 mm 0.45 m/s, 86° 0 W/m² -
1788221057 26.67° C 91% 1007.2 hPa 0 mm 0.89 m/s, 107° 0 W/m² -
1788220995 26.67° C 91% 1007.3 hPa 0 mm 0.89 m/s, 123° 0 W/m² -
1788220935 26.67° C 91% 1007.2 hPa 0 mm 0.89 m/s, 126° 0 W/m² -
1788220873 26.67° C 91% 1007.2 hPa 0 mm 0.45 m/s, 100° 0 W/m² -
1788220812 26.67° C 91% 1007.4 hPa 0 mm 1.34 m/s, 112° 0 W/m² -
1788220751 26.67° C 91% 1007.2 hPa 0 mm 0.89 m/s, 123° 0 W/m² -
1788220690 26.67° C 91% 1007.2 hPa 0 mm 0.89 m/s, 94° 0 W/m² -
1788220629 26.67° C 91% 1007.4 hPa 0 mm 1.34 m/s, 128° 0 W/m² -
1788220568 26.67° C 91% 1007.3 hPa 0 mm 0.89 m/s, 113° 0 W/m² -
1788220507 26.67° C 91% 1007.3 hPa 0 mm 0.89 m/s, 85° 0 W/m² -
1788220446 26.67° C 91% 1007.3 hPa 0 mm 0 m/s 0 W/m² -

* Rain latest hour (hover to see other rain measurements)
** Current wind speed in m/s (hover to see current wind gust speed)